Wetterdaten: aktuell Dienstag, 10.12.2019 11:10
Datum Zeit Temp. I. Temp. A. Teich Feuchte I. Feuchte A. Luftdruck Regen Wind Richtung Richtung Sonnenschein T Regen ET Solar Taupunkt Windchill Windben Empfang
10.12.2019 11:10 4,4 C 2,2 C 3,3 C 77 % 82 % 1025,4 hPa 0,0 l/m 14,7 km/h W 275 5 min 0 min 0,000 mm 284 W/m -0,5 C -4,1 C 25,7 km/h 88,62 %
10.12.2019 11:05 4,4 C 1,9 C 3,3 C 77 % 83 % 1025,3 hPa 0,0 l/m 13,1 km/h W 259 0 min 0 min 0,050 mm 106 W/m -0,7 C -3,5 C 19,3 km/h 87,18 %
10.12.2019 11:00 4,4 C 1,8 C 3,3 C 77 % 82 % 1025,2 hPa 0,0 l/m 13,5 km/h W-SW 251 0 min 0 min 0,000 mm 123 W/m -0,9 C -3,9 C 20,9 km/h 93,75 %
10.12.2019 10:55 4,4 C 1,8 C 3,3 C 77 % 83 % 1025,1 hPa 0,0 l/m 10,5 km/h W-SW 251 0 min 0 min 0,000 mm 97 W/m -0,8 C -1,8 C 17,7 km/h 88,03 %
10.12.2019 10:50 4,4 C 1,8 C 3,3 C 77 % 82 % 1024,9 hPa 0,0 l/m 15,6 km/h W 278 0 min 0 min 0,000 mm 87 W/m -0,9 C -5,1 C 29,0 km/h 93,16 %
10.12.2019 10:45 4,4 C 1,8 C 3,3 C 77 % 82 % 1024,9 hPa 0,0 l/m 15,7 km/h W-SW 248 0 min 0 min 0,000 mm 71 W/m -0,9 C -5,2 C 25,7 km/h 88,89 %
10.12.2019 10:40 4,4 C 1,8 C 3,3 C 77 % 83 % 1024,7 hPa 0,0 l/m 12,9 km/h W-SW 256 0 min 0 min 0,000 mm 70 W/m -0,8 C -3,5 C 25,7 km/h 93,16 %
10.12.2019 10:35 4,4 C 1,8 C 3,3 C 77 % 84 % 1024,6 hPa 0,0 l/m 14,5 km/h W-SW 257 0 min 0 min 0,000 mm 80 W/m -0,6 C -4,5 C 22,5 km/h 91,45 %
10.12.2019 10:30 4,4 C 1,8 C 3,9 C 77 % 84 % 1024,6 hPa 0,0 l/m 16,1 km/h W-SW 256 0 min 0 min 0,000 mm 121 W/m -0,6 C -5,4 C 25,7 km/h 89,74 %
10.12.2019 10:25 4,4 C 1,8 C 3,9 C 77 % 85 % 1024,5 hPa 0,0 l/m 16,4 km/h S-SW 209 0 min 0 min 0,000 mm 144 W/m -0,4 C -5,6 C 25,7 km/h 97,44 %
10.12.2019 10:20 4,4 C 1,8 C 3,3 C 77 % 85 % 1024,4 hPa 0,0 l/m 17,9 km/h SW 226 0 min 0 min 0,000 mm 147 W/m -0,4 C -6,3 C 29,0 km/h 90,91 %
10.12.2019 10:15 4,4 C 1,8 C 3,3 C 77 % 85 % 1024,4 hPa 0,0 l/m 15,7 km/h W 259 5 min 0 min 0,000 mm 165 W/m -0,4 C -5,2 C 22,5 km/h 91,87 %
10.12.2019 10:10 4,4 C 1,8 C 3,3 C 76 % 86 % 1024,3 hPa 0,0 l/m 16,3 km/h SW 225 5 min 0 min 0,000 mm 181 W/m -0,3 C -5,5 C 25,7 km/h 87,04 %
10.12.2019 10:05 4,4 C 1,6 C 3,9 C 76 % 86 % 1024,2 hPa 0,0 l/m 16,5 km/h W-SW 245 5 min 0 min 0,051 mm 155 W/m -0,5 C -5,9 C 29,0 km/h 97,44 %
10.12.2019 10:00 4,4 C 1,5 C 3,9 C 76 % 86 % 1024,2 hPa 0,0 l/m 12,5 km/h W-SW 244 0 min 0 min 0,000 mm 89 W/m -0,6 C -3,6 C 20,9 km/h 93,33 %
10.12.2019 09:55 4,4 C 1,5 C 3,9 C 77 % 86 % 1024,1 hPa 0,0 l/m 11,5 km/h W-SW 251 0 min 0 min 0,000 mm 100 W/m -0,6 C -2,9 C 22,5 km/h 91,87 %
10.12.2019 09:50 4,4 C 1,4 C 3,9 C 77 % 87 % 1024,0 hPa 0,0 l/m 11,6 km/h W-SW 258 0 min 0 min 0,000 mm 116 W/m -0,5 C -3,1 C 19,3 km/h 93,16 %
10.12.2019 09:45 4,4 C 1,4 C 3,9 C 76 % 87 % 1023,8 hPa 0,0 l/m 12,1 km/h W-SW 256 0 min 0 min 0,000 mm 87 W/m -0,5 C -3,5 C 17,7 km/h 95,54 %
10.12.2019 09:40 4,4 C 1,4 C 3,9 C 77 % 87 % 1023,7 hPa 0,0 l/m 11,5 km/h W-SW 240 0 min 0 min 0,000 mm 87 W/m -0,5 C -3,0 C 22,5 km/h 88,89 %
10.12.2019 09:35 4,4 C 1,4 C 3,3 C 76 % 87 % 1023,6 hPa 0,0 l/m 12,8 km/h SW 233 0 min 0 min 0,000 mm 66 W/m -0,5 C -3,9 C 20,9 km/h 93,50 %
10.12.2019 09:30 4,4 C 1,4 C 3,3 C 76 % 87 % 1023,5 hPa 0,0 l/m 15,0 km/h SW 223 0 min 0 min 0,000 mm 83 W/m -0,5 C -5,3 C 22,5 km/h 89,74 %
10.12.2019 09:25 4,4 C 1,4 C 3,3 C 76 % 87 % 1023,5 hPa 0,0 l/m 12,6 km/h SW 232 0 min 0 min 0,000 mm 94 W/m -0,5 C -3,8 C 19,3 km/h 85,47 %
10.12.2019 09:20 4,4 C 1,4 C 3,3 C 76 % 87 % 1023,3 hPa 0,0 l/m 11,8 km/h W-SW 246 0 min 0 min 0,000 mm 58 W/m -0,5 C -3,2 C 20,9 km/h 87,39 %
10.12.2019 09:15 4,4 C 1,4 C 3,3 C 76 % 87 % 1023,3 hPa 0,0 l/m 13,3 km/h W-SW 238 0 min 0 min 0,000 mm 34 W/m -0,5 C -4,3 C 24,1 km/h 90,60 %
10.12.2019 09:10 4,4 C 1,6 C 3,3 C 76 % 87 % 1023,2 hPa 0,0 l/m 10,8 km/h W-SW 237 0 min 0 min 0,000 mm 50 W/m -0,3 C -2,3 C 17,7 km/h 91,45 %
10.12.2019 09:05 4,4 C 1,5 C 3,3 C 76 % 87 % 1023,0 hPa 0,0 l/m 13,4 km/h W-SW 240 0 min 0 min 0,026 mm 69 W/m -0,4 C -4,2 C 24,1 km/h 88,62 %
10.12.2019 09:00 4,4 C 1,5 C 3,3 C 76 % 87 % 1023,1 hPa 0,0 l/m 14,6 km/h W-SW 246 0 min 0 min 0,000 mm 68 W/m -0,4 C -4,9 C 24,1 km/h 91,74 %
10.12.2019 08:55 4,4 C 1,5 C 3,3 C 76 % 88 % 1022,9 hPa 0,0 l/m 13,6 km/h W-SW 246 0 min 0 min 0,000 mm 70 W/m -0,3 C -4,3 C 20,9 km/h 93,16 %
10.12.2019 08:50 4,5 C 1,4 C 3,3 C 76 % 88 % 1022,8 hPa 0,0 l/m 15,7 km/h W-SW 238 0 min 0 min 0,000 mm 72 W/m -0,4 C -5,7 C 27,4 km/h 91,45 %
10.12.2019 08:45 4,5 C 1,3 C 3,3 C 76 % 88 % 1022,8 hPa 0,0 l/m 10,7 km/h W-SW 252 5 min 0 min 0,000 mm 86 W/m -0,5 C -2,6 C 20,9 km/h 94,87 %
10.12.2019 08:40 4,5 C 1,2 C 3,3 C 76 % 88 % 1022,8 hPa 0,0 l/m 9,9 km/h W-SW 257 5 min 0 min 0,000 mm 73 W/m -0,6 C -2,0 C 19,3 km/h 95,24 %
10.12.2019 08:35 4,6 C 1,1 C 3,3 C 76 % 88 % 1022,7 hPa 0,0 l/m 10,2 km/h W-SW 247 0 min 0 min 0,000 mm 44 W/m -0,7 C -2,4 C 17,7 km/h 94,87 %
10.12.2019 08:30 4,6 C 1,2 C 3,3 C 76 % 88 % 1022,5 hPa 0,0 l/m 13,7 km/h SW 229 0 min 0 min 0,000 mm 42 W/m -0,6 C -4,7 C 20,9 km/h 94,44 %
10.12.2019 08:25 4,6 C 1,2 C 3,3 C 76 % 88 % 1022,4 hPa 0,0 l/m 12,2 km/h SW 215 0 min 0 min 0,000 mm 22 W/m -0,6 C -3,8 C 25,7 km/h 94,02 %
10.12.2019 08:20 4,6 C 1,2 C 3,3 C 76 % 88 % 1022,3 hPa 0,0 l/m 13,9 km/h W 261 0 min 0 min 0,000 mm 20 W/m -0,6 C -4,9 C 22,5 km/h 91,53 %
10.12.2019 08:15 4,6 C 1,1 C 3,3 C 76 % 88 % 1022,1 hPa 0,0 l/m 12,3 km/h W-SW 240 0 min 0 min 0,000 mm 20 W/m -0,7 C -3,9 C 24,1 km/h 92,80 %
10.12.2019 08:10 4,6 C 1,1 C 3,3 C 76 % 88 % 1022,0 hPa 0,0 l/m 11,9 km/h W-SW 238 0 min 0 min 0,000 mm 24 W/m -0,7 C -3,7 C 19,3 km/h 92,66 %
10.12.2019 08:05 4,6 C 1,1 C 3,3 C 76 % 88 % 1021,9 hPa 0,0 l/m 13,2 km/h W-SW 244 0 min 0 min 0,000 mm 19 W/m -0,7 C -4,5 C 20,9 km/h 90,60 %
10.12.2019 08:00 4,6 C 1,0 C 3,3 C 76 % 88 % 1021,7 hPa 0,0 l/m 13,1 km/h SW 220 0 min 0 min 0,000 mm 13 W/m -0,8 C -4,6 C 19,3 km/h 88,89 %
10.12.2019 07:55 4,6 C 0,9 C 3,3 C 76 % 88 % 1021,6 hPa 0,0 l/m 12,1 km/h W-SW 238 5 min 0 min 0,000 mm 10 W/m -0,9 C -4,0 C 19,3 km/h 88,33 %
10.12.2019 07:50 4,6 C 1,0 C 3,3 C 76 % 88 % 1021,5 hPa 0,0 l/m 12,2 km/h SW 232 0 min 0 min 0,000 mm 7 W/m -0,8 C -4,0 C 19,3 km/h 85,83 %
10.12.2019 07:45 4,6 C 1,1 C 3,3 C 77 % 88 % 1021,3 hPa 0,0 l/m 10,5 km/h W-SW 237 0 min 0 min 0,000 mm 4 W/m -0,7 C -2,6 C 17,7 km/h 90,60 %
10.12.2019 07:40 4,6 C 1,0 C 3,3 C 77 % 88 % 1021,2 hPa 0,0 l/m 10,1 km/h W-SW 239 0 min 0 min 0,000 mm 0 W/m -0,8 C -2,4 C 16,1 km/h 88,07 %
10.12.2019 07:35 4,6 C 1,1 C 3,3 C 76 % 88 % 1021,2 hPa 0,0 l/m 10,9 km/h W 259 0 min 0 min 0,000 mm 0 W/m -0,7 C -2,9 C 19,3 km/h 91,67 %
10.12.2019 07:30 4,6 C 1,1 C 3,3 C 77 % 88 % 1021,1 hPa 0,0 l/m 9,9 km/h W-SW 258 0 min 0 min 0,000 mm 0 W/m -0,7 C -2,2 C 16,1 km/h 89,17 %
10.12.2019 07:25 4,6 C 1,1 C 3,3 C 77 % 88 % 1021,1 hPa 0,0 l/m 8,8 km/h SW 232 0 min 0 min 0,000 mm 0 W/m -0,7 C -1,2 C 17,7 km/h 89,17 %
10.12.2019 07:20 4,6 C 1,2 C 3,3 C 77 % 88 % 1021,0 hPa 0,0 l/m 10,2 km/h W-SW 237 0 min 0 min 0,000 mm 0 W/m -0,6 C -2,3 C 19,3 km/h 95,37 %
10.12.2019 07:15 4,7 C 1,3 C 3,3 C 77 % 88 % 1020,7 hPa 0,0 l/m 8,3 km/h W 263 0 min 0 min 0,000 mm 0 W/m -0,5 C -0,6 C 14,5 km/h 94,02 %
10.12.2019 07:10 4,7 C 1,5 C 3,3 C 77 % 87 % 1020,7 hPa 0,0 l/m 10,3 km/h W-SW 239 0 min 0 min 0,000 mm 0 W/m -0,4 C -2,0 C 17,7 km/h 91,67 %
10.12.2019 07:05 4,7 C 1,7 C 3,3 C 77 % 87 % 1020,7 hPa 0,0 l/m 12,2 km/h W-SW 240 0 min 0 min 0,025 mm 0 W/m -0,2 C -3,2 C 20,9 km/h 94,44 %
10.12.2019 07:00 4,7 C 1,8 C 3,3 C 77 % 88 % 1020,7 hPa 0,0 l/m 14,0 km/h W 266 0 min 0 min 0,000 mm 0 W/m 0,0 C -4,2 C 22,5 km/h 92,45 %
10.12.2019 06:55 4,7 C 1,8 C 3,3 C 77 % 88 % 1020,5 hPa 0,0 l/m 13,5 km/h W-SW 250 0 min 0 min 0,000 mm 0 W/m 0,0 C -3,9 C 20,9 km/h 88,03 %
10.12.2019 06:50 4,7 C 1,8 C 3,3 C 77 % 87 % 1020,4 hPa 0,0 l/m 14,4 km/h SW 235 0 min 0 min 0,000 mm 0 W/m -0,1 C -4,5 C 20,9 km/h 88,89 %
10.12.2019 06:45 4,7 C 1,9 C 3,3 C 77 % 87 % 1020,2 hPa 0,0 l/m 14,8 km/h W-SW 243 0 min 0 min 0,000 mm 0 W/m -0,0 C -4,6 C 24,1 km/h 88,03 %
10.12.2019 06:40 4,7 C 1,9 C 3,3 C 77 % 87 % 1020,0 hPa 0,0 l/m 11,0 km/h W-SW 241 0 min 0 min 0,000 mm 0 W/m -0,0 C -2,1 C 19,3 km/h 90,83 %
10.12.2019 06:35 4,7 C 1,9 C 3,3 C 76 % 87 % 1019,9 hPa 0,0 l/m 10,8 km/h W 273 0 min 0 min 0,000 mm 0 W/m -0,0 C -2,0 C 17,7 km/h 94,17 %
10.12.2019 06:30 4,7 C 2,0 C 3,3 C 77 % 86 % 1019,8 hPa 0,0 l/m 10,9 km/h SW 225 0 min 0 min 0,000 mm 0 W/m -0,1 C -1,9 C 19,3 km/h 88,33 %
10.12.2019 06:25 4,7 C 2,0 C 3,3 C 77 % 86 % 1019,7 hPa 0,0 l/m 12,3 km/h W 278 0 min 0 min 0,000 mm 0 W/m -0,1 C -2,9 C 20,9 km/h 90,09 %
10.12.2019 06:20 4,7 C 2,1 C 3,3 C 76 % 86 % 1019,6 hPa 0,0 l/m 11,0 km/h W 263 0 min 0 min 0,000 mm 0 W/m 0,0 C -1,9 C 19,3 km/h 94,87 %
10.12.2019 06:15 4,7 C 2,1 C 3,9 C 76 % 87 % 1019,5 hPa 0,0 l/m 13,2 km/h W 269 0 min 0 min 0,000 mm 0 W/m 0,2 C -3,4 C 24,1 km/h 89,17 %
10.12.2019 06:10 4,7 C 2,1 C 3,3 C 76 % 87 % 1019,4 hPa 0,0 l/m 13,5 km/h W-SW 239 0 min 0 min 0,000 mm 0 W/m 0,2 C -3,6 C 24,1 km/h 95,76 %
10.12.2019 06:05 4,7 C 2,1 C 3,3 C 76 % 87 % 1019,1 hPa 0,0 l/m 13,2 km/h W 263 0 min 0 min 0,000 mm 0 W/m 0,2 C -3,4 C 22,5 km/h 91,06 %
10.12.2019 06:00 4,7 C 2,2 C 3,3 C 76 % 87 % 1018,9 hPa 0,0 l/m 14,2 km/h W 265 0 min 0 min 0,000 mm 0 W/m 0,3 C -3,9 C 22,5 km/h 92,11 %
10.12.2019 05:55 4,7 C 2,2 C 3,3 C 76 % 88 % 1018,9 hPa 0,0 l/m 10,9 km/h W-SW 257 0 min 0 min 0,000 mm 0 W/m 0,4 C -1,7 C 20,9 km/h 91,45 %
10.12.2019 05:50 4,7 C 2,2 C 3,3 C 76 % 88 % 1018,7 hPa 0,0 l/m 9,0 km/h W-SW 248 0 min 0 min 0,000 mm 0 W/m 0,4 C -0,2 C 19,3 km/h 89,19 %
10.12.2019 05:45 4,7 C 2,3 C 3,3 C 76 % 89 % 1018,6 hPa 0,0 l/m 10,9 km/h W-SW 248 0 min 0 min 0,000 mm 0 W/m 0,7 C -1,6 C 20,9 km/h 92,31 %
10.12.2019 05:40 4,7 C 2,3 C 3,3 C 76 % 89 % 1018,5 hPa 0,0 l/m 11,0 km/h SW 225 0 min 0 min 0,000 mm 0 W/m 0,7 C -1,7 C 19,3 km/h 87,18 %
10.12.2019 05:35 4,7 C 2,3 C 3,3 C 76 % 88 % 1018,3 hPa 0,0 l/m 8,4 km/h W-SW 257 0 min 0 min 0,000 mm 0 W/m 0,5 C 0,4 C 12,9 km/h 88,03 %
10.12.2019 05:30 4,7 C 2,3 C 3,3 C 76 % 88 % 1018,2 hPa 0,0 l/m 10,9 km/h W 270 0 min 0 min 0,000 mm 0 W/m 0,5 C -1,6 C 24,1 km/h 91,53 %
10.12.2019 05:25 4,7 C 2,4 C 3,3 C 76 % 89 % 1018,0 hPa 0,0 l/m 9,4 km/h W-SW 246 0 min 0 min 0,000 mm 0 W/m 0,8 C -0,3 C 17,7 km/h 91,67 %
10.12.2019 05:20 4,7 C 2,4 C 3,3 C 76 % 89 % 1017,8 hPa 0,0 l/m 7,3 km/h W-NW 290 0 min 0 min 0,000 mm 0 W/m 0,8 C 1,5 C 17,7 km/h 90,83 %
10.12.2019 05:15 4,7 C 2,4 C 3,3 C 76 % 88 % 1017,8 hPa 0,0 l/m 9,6 km/h W 265 0 min 0 min 0,000 mm 0 W/m 0,6 C -0,5 C 17,7 km/h 94,44 %
10.12.2019 05:10 4,7 C 2,6 C 3,3 C 76 % 89 % 1017,6 hPa 0,0 l/m 11,8 km/h W-NW 296 0 min 0 min 0,000 mm 0 W/m 1,0 C -1,9 C 19,3 km/h 95,73 %
10.12.2019 05:05 4,7 C 2,7 C 3,3 C 76 % 89 % 1017,5 hPa 0,0 l/m 10,4 km/h W 269 0 min 0 min 0,000 mm 0 W/m 1,1 C -0,8 C 19,3 km/h 86,44 %
10.12.2019 05:00 4,7 C 2,7 C 3,3 C 76 % 90 % 1017,4 hPa 0,0 l/m 13,4 km/h W 268 0 min 0 min 0,000 mm 0 W/m 1,2 C -2,8 C 20,9 km/h 90,60 %
10.12.2019 04:55 4,7 C 2,8 C 3,3 C 76 % 90 % 1017,3 hPa 0,0 l/m 12,0 km/h W-SW 245 0 min 0 min 0,000 mm 0 W/m 1,3 C -1,8 C 24,1 km/h 98,21 %
10.12.2019 04:45 4,7 C 2,8 C 3,3 C 76 % 90 % 1017,0 hPa 0,0 l/m 12,1 km/h W 259 0 min 0 min 0,000 mm 0 W/m 1,3 C -1,8 C 24,1 km/h 93,50 %
10.12.2019 04:40 4,7 C 2,9 C 3,3 C 76 % 90 % 1016,9 hPa 0,0 l/m 18,8 km/h W-SW 249 0 min 0 min 0,000 mm 0 W/m 1,4 C -5,4 C 27,4 km/h 88,03 %
10.12.2019 04:35 4,7 C 2,9 C 3,3 C 76 % 91 % 1016,7 hPa 0,0 l/m 13,9 km/h SW 235 0 min 0 min 0,000 mm 0 W/m 1,6 C -2,8 C 20,9 km/h 92,31 %
10.12.2019 04:30 4,7 C 3,0 C 3,9 C 76 % 91 % 1016,5 hPa 0,0 l/m 14,2 km/h W-SW 251 0 min 0 min 0,000 mm 0 W/m 1,7 C -2,9 C 22,5 km/h 89,17 %
10.12.2019 04:25 4,7 C 3,0 C 3,9 C 76 % 91 % 1016,4 hPa 0,0 l/m 13,1 km/h W-NW 283 0 min 0 min 0,000 mm 0 W/m 1,7 C -2,2 C 22,5 km/h 83,49 %
10.12.2019 04:20 4,7 C 3,0 C 3,9 C 76 % 91 % 1016,4 hPa 0,0 l/m 10,1 km/h W-SW 244 0 min 0 min 0,000 mm 0 W/m 1,7 C -0,2 C 17,7 km/h 88,33 %
10.12.2019 04:15 4,7 C 3,1 C 3,9 C 76 % 91 % 1016,2 hPa 0,0 l/m 13,0 km/h SW 229 0 min 0 min 0,000 mm 0 W/m 1,8 C -2,1 C 19,3 km/h 88,03 %
10.12.2019 04:10 4,7 C 3,0 C 3,9 C 76 % 91 % 1016,2 hPa 0,0 l/m 13,7 km/h W-SW 241 0 min 0 min 0,000 mm 0 W/m 1,7 C -2,6 C 19,3 km/h 92,31 %
10.12.2019 04:05 4,7 C 2,9 C 3,9 C 76 % 91 % 1016,1 hPa 0,0 l/m 8,1 km/h W-SW 241 0 min 0 min 0,000 mm 0 W/m 1,6 C 1,3 C 14,5 km/h 94,17 %
10.12.2019 04:00 4,7 C 2,9 C 3,9 C 76 % 91 % 1016,1 hPa 0,0 l/m 10,7 km/h W 261 0 min 0 min 0,000 mm 0 W/m 1,6 C -0,8 C 16,1 km/h 91,45 %
10.12.2019 03:55 4,7 C 2,9 C 3,9 C 76 % 91 % 1016,1 hPa 0,0 l/m 10,9 km/h W-SW 238 0 min 0 min 0,000 mm 0 W/m 1,6 C -0,9 C 19,3 km/h 88,03 %
10.12.2019 03:50 4,7 C 2,9 C 3,9 C 76 % 91 % 1015,9 hPa 0,0 l/m 10,1 km/h W-SW 241 0 min 0 min 0,000 mm 0 W/m 1,6 C -0,3 C 16,1 km/h 87,18 %
10.12.2019 03:45 4,7 C 2,9 C 3,9 C 76 % 91 % 1015,8 hPa 0,0 l/m 10,7 km/h W-SW 237 0 min 0 min 0,000 mm 0 W/m 1,6 C -0,8 C 16,1 km/h 91,74 %
10.12.2019 03:40 4,7 C 2,9 C 3,9 C 76 % 91 % 1015,7 hPa 0,0 l/m 10,4 km/h W-SW 251 0 min 0 min 0,000 mm 0 W/m 1,6 C -0,5 C 17,7 km/h 91,45 %
10.12.2019 03:35 4,7 C 2,9 C 3,9 C 76 % 91 % 1015,7 hPa 0,0 l/m 11,1 km/h SW 233 0 min 0 min 0,000 mm 0 W/m 1,6 C -1,0 C 17,7 km/h 93,16 %
10.12.2019 03:30 4,7 C 2,9 C 3,9 C 76 % 91 % 1015,6 hPa 0,0 l/m 10,1 km/h W-SW 237 0 min 0 min 0,000 mm 0 W/m 1,6 C -0,3 C 17,7 km/h 92,86 %
10.12.2019 03:25 4,7 C 2,9 C 3,9 C 76 % 91 % 1015,5 hPa 0,0 l/m 9,5 km/h SW 224 0 min 0 min 0,000 mm 0 W/m 1,6 C 0,1 C 14,5 km/h 90,99 %
10.12.2019 03:20 4,7 C 2,9 C 3,9 C 76 % 91 % 1015,4 hPa 0,0 l/m 8,5 km/h W-SW 241 0 min 0 min 0,000 mm 0 W/m 1,6 C 1,0 C 14,5 km/h 91,45 %
10.12.2019 03:15 4,7 C 2,9 C 3,9 C 76 % 91 % 1015,3 hPa 0,0 l/m 10,7 km/h W-SW 251 0 min 0 min 0,000 mm 0 W/m 1,6 C -0,8 C 14,5 km/h 90,60 %
10.12.2019 03:10 4,7 C 2,9 C 3,9 C 76 % 91 % 1015,1 hPa 0,0 l/m 8,9 km/h W-SW 244 0 min 0 min 0,000 mm 0 W/m 1,6 C 0,6 C 16,1 km/h 91,53 %
10.12.2019 03:05 4,7 C 2,9 C 3,9 C 76 % 91 % 1015,0 hPa 0,0 l/m 9,6 km/h W-SW 250 0 min 0 min 0,000 mm 0 W/m 1,6 C 0,1 C 16,1 km/h 89,83 %
10.12.2019 03:00 4,7 C 2,9 C 3,9 C 76 % 91 % 1015,0 hPa 0,0 l/m 10,8 km/h SW 224 0 min 0 min 0,000 mm 0 W/m 1,6 C -0,8 C 17,7 km/h 93,16 %
10.12.2019 02:55 4,7 C 2,8 C 3,9 C 76 % 91 % 1014,9 hPa 0,0 l/m 8,0 km/h SW 221 0 min 0 min 0,000 mm 0 W/m 1,5 C 1,3 C 14,5 km/h 94,02 %
10.12.2019 02:50 4,7 C 2,8 C 3,9 C 76 % 91 % 1014,8 hPa 0,0 l/m 11,8 km/h SW 234 0 min 0 min 0,000 mm 0 W/m 1,5 C -1,6 C 17,7 km/h 90,60 %
10.12.2019 02:45 4,7 C 2,8 C 3,9 C 76 % 91 % 1014,7 hPa 0,0 l/m 10,1 km/h SW 229 0 min 0 min 0,000 mm 0 W/m 1,5 C -0,4 C 16,1 km/h 89,74 %
10.12.2019 02:40 4,7 C 2,8 C 3,9 C 76 % 91 % 1014,4 hPa 0,0 l/m 10,6 km/h W 265 0 min 0 min 0,000 mm 0 W/m 1,5 C -0,8 C 16,1 km/h 90,48 %
10.12.2019 02:35 4,7 C 2,8 C 3,9 C 76 % 91 % 1014,4 hPa 0,0 l/m 9,2 km/h SW 227 0 min 0 min 0,000 mm 0 W/m 1,5 C 0,3 C 17,7 km/h 87,96 %
10.12.2019 02:30 4,7 C 2,8 C 3,9 C 76 % 91 % 1014,4 hPa 0,0 l/m 7,9 km/h SW 219 0 min 0 min 0,000 mm 0 W/m 1,5 C 1,4 C 12,9 km/h 91,45 %
10.12.2019 02:25 4,7 C 2,8 C 3,9 C 76 % 91 % 1014,2 hPa 0,0 l/m 9,5 km/h SW 221 0 min 0 min 0,000 mm 0 W/m 1,5 C 0,0 C 16,1 km/h 94,17 %
10.12.2019 02:20 4,7 C 2,8 C 3,9 C 76 % 90 % 1014,2 hPa 0,0 l/m 8,6 km/h SW 227 0 min 0 min 0,000 mm 0 W/m 1,3 C 0,8 C 17,7 km/h 89,91 %
10.12.2019 02:15 4,7 C 2,8 C 3,9 C 76 % 91 % 1014,0 hPa 0,0 l/m 9,5 km/h SW 233 0 min 0 min 0,000 mm 0 W/m 1,5 C 0,0 C 16,1 km/h 91,67 %
10.12.2019 02:10 4,7 C 2,9 C 3,9 C 76 % 91 % 1014,0 hPa 0,0 l/m 8,4 km/h W-SW 240 0 min 0 min 0,000 mm 0 W/m 1,6 C 1,0 C 14,5 km/h 92,31 %
10.12.2019 02:05 4,7 C 2,8 C 3,9 C 76 % 91 % 1013,9 hPa 0,0 l/m 8,1 km/h W-SW 238 0 min 0 min 0,000 mm 0 W/m 1,5 C 1,2 C 14,5 km/h 89,17 %
10.12.2019 02:00 4,8 C 2,7 C 3,9 C 76 % 91 % 1013,8 hPa 0,0 l/m 9,1 km/h W-SW 253 0 min 0 min 0,000 mm 0 W/m 1,4 C 0,2 C 14,5 km/h 93,16 %
10.12.2019 01:55 4,8 C 2,7 C 3,9 C 76 % 91 % 1013,7 hPa 0,0 l/m 6,4 km/h SW 235 0 min 0 min 0,000 mm 0 W/m 1,4 C 2,7 C 12,9 km/h 96,49 %
10.12.2019 01:50 4,8 C 2,6 C 3,9 C 76 % 91 % 1013,7 hPa 0,0 l/m 4,0 km/h W-SW 256 0 min 0 min 0,000 mm 0 W/m 1,3 C 2,6 C 6,4 km/h 93,86 %
10.12.2019 01:45 4,8 C 2,7 C 3,9 C 76 % 91 % 1013,6 hPa 0,0 l/m 4,7 km/h SW 233 0 min 0 min 0,000 mm 0 W/m 1,4 C 2,7 C 8,0 km/h 88,89 %
10.12.2019 01:40 4,8 C 2,7 C 3,9 C 76 % 91 % 1013,4 hPa 0,0 l/m 5,8 km/h SW 234 0 min 0 min 0,000 mm 0 W/m 1,4 C 2,7 C 9,7 km/h 92,31 %
10.12.2019 01:35 4,8 C 2,7 C 3,9 C 76 % 91 % 1013,4 hPa 0,0 l/m 6,7 km/h W-SW 242 0 min 0 min 0,000 mm 0 W/m 1,4 C 2,4 C 11,3 km/h 95,00 %
10.12.2019 01:30 4,8 C 2,6 C 3,9 C 76 % 90 % 1013,3 hPa 0,0 l/m 5,5 km/h W 259 0 min 0 min 0,000 mm 0 W/m 1,1 C 2,6 C 11,3 km/h 90,00 %
10.12.2019 01:25 4,8 C 2,6 C 3,9 C 76 % 90 % 1013,3 hPa 0,0 l/m 6,5 km/h W-SW 240 0 min 0 min 0,000 mm 0 W/m 1,1 C 2,5 C 11,3 km/h 90,68 %
10.12.2019 01:20 4,8 C 2,7 C 3,9 C 76 % 90 % 1013,1 hPa 0,0 l/m 6,9 km/h W-SW 242 0 min 0 min 0,000 mm 0 W/m 1,2 C 2,2 C 9,7 km/h 82,50 %
10.12.2019 01:15 4,8 C 2,8 C 3,9 C 76 % 90 % 1012,9 hPa 0,0 l/m 9,1 km/h SW 231 0 min 0 min 0,000 mm 0 W/m 1,3 C 0,4 C 16,1 km/h 91,45 %
10.12.2019 01:10 4,8 C 2,7 C 3,9 C 76 % 90 % 1012,8 hPa 0,0 l/m 8,6 km/h W-SW 238 0 min 0 min 0,000 mm 0 W/m 1,2 C 0,7 C 16,1 km/h 88,89 %
10.12.2019 01:05 4,8 C 2,7 C 3,9 C 76 % 90 % 1012,8 hPa 0,0 l/m 9,0 km/h S-SW 211 0 min 0 min 0,000 mm 0 W/m 1,2 C 0,3 C 14,5 km/h 90,60 %
10.12.2019 01:00 4,8 C 2,7 C 3,9 C 76 % 90 % 1012,6 hPa 0,0 l/m 7,6 km/h W-SW 240 0 min 0 min 0,000 mm 0 W/m 1,2 C 1,6 C 12,9 km/h 89,81 %
10.12.2019 00:55 4,8 C 2,8 C 3,9 C 76 % 90 % 1012,5 hPa 0,0 l/m 6,9 km/h W-SW 241 0 min 0 min 0,000 mm 0 W/m 1,3 C 2,3 C 12,9 km/h 94,02 %
10.12.2019 00:50 4,8 C 2,9 C 3,9 C 76 % 90 % 1012,5 hPa 0,0 l/m 5,6 km/h W-SW 244 0 min 0 min 0,000 mm 0 W/m 1,4 C 2,9 C 11,3 km/h 94,02 %
10.12.2019 00:45 4,8 C 3,0 C 3,9 C 76 % 89 % 1012,4 hPa 0,0 l/m 5,1 km/h W-SW 258 0 min 0 min 0,000 mm 0 W/m 1,4 C 3,0 C 11,3 km/h 94,87 %
10.12.2019 00:40 4,8 C 3,2 C 3,9 C 76 % 89 % 1012,3 hPa 0,0 l/m 4,1 km/h W-SW 257 0 min 0 min 0,000 mm 0 W/m 1,6 C 3,2 C 8,0 km/h 90,68 %
10.12.2019 00:35 4,8 C 3,2 C 3,9 C 76 % 89 % 1012,2 hPa 0,0 l/m 2,9 km/h W-SW 244 0 min 0 min 0,000 mm 0 W/m 1,6 C 3,2 C 6,4 km/h 91,67 %
10.12.2019 00:30 4,8 C 3,3 C 3,9 C 76 % 89 % 1012,3 hPa 0,0 l/m 3,8 km/h W-SW 244 0 min 0 min 0,000 mm 0 W/m 1,7 C 3,3 C 6,4 km/h 89,60 %
10.12.2019 00:25 4,8 C 3,4 C 3,9 C 76 % 89 % 1012,2 hPa 0,0 l/m 3,6 km/h W 271 0 min 0 min 0,000 mm 0 W/m 1,8 C 3,4 C 6,4 km/h 89,62 %
10.12.2019 00:20 4,8 C 3,5 C 3,9 C 76 % 88 % 1012,2 hPa 0,0 l/m 6,2 km/h SW 233 0 min 0 min 0,000 mm 0 W/m 1,7 C 3,5 C 12,9 km/h 89,86 %
10.12.2019 00:15 4,8 C 3,6 C 3,9 C 76 % 88 % 1012,2 hPa 0,0 l/m 8,7 km/h SW 224 0 min 0 min 0,000 mm 0 W/m 1,8 C 1,5 C 14,5 km/h 91,67 %
10.12.2019 00:10 4,8 C 3,7 C 3,9 C 76 % 88 % 1012,2 hPa 0,0 l/m 12,0 km/h W 269 0 min 0 min 0,000 mm 0 W/m 1,9 C -0,7 C 20,9 km/h 93,39 %
10.12.2019 00:05 4,8 C 3,4 C 3,9 C 75 % 88 % 1012,1 hPa 0,0 l/m 7,1 km/h W 269 0 min 0 min 0,000 mm 0 W/m 1,6 C 2,7 C 16,1 km/h 92,79 %
10.12.2019 00:00 4,8 C 3,4 C 3,9 C 75 % 87 % 1012,0 hPa 0,0 l/m 5,7 km/h W-SW 244 0 min 0 min 0,000 mm 0 W/m 1,4 C 3,4 C 11,3 km/h 91,67 %
_ Min-Zeit 08:55 07:55 04:35 00:00 10:45 00:00 - 00:35 - - - - - - 10:45 10:20 00:25 01:20
Minimum _ 4,4 C 0,9 C 3,3 C 75 % 82 % 1012,0 hPa - 2,9 km/h - - - - - - -0,9 C -6,3 C 6,4 km/h 82,50 %
_ Max-Zeit 00:00 00:10 00:00 06:25 01:35 11:10 00:00 04:40 - - 07:55 00:00 10:05 11:10 00:10 00:20 10:05 04:55
Maximum _ 4,8 C 3,7 C 3,9 C 77 % 91 % 1025,4 hPa 0,0 l/m 18,8 km/h
W-SW
- - 5 min 0 min 0,051 mm 284 W/m 1,9 C 3,5 C 29,0 km/h
SW
98,21 %
Durchschnitt _ 4,6 C 2,2 C 3,6 C 76 % 88 % 1018,5 hPa #0,0 l/m 10,9 km/h W-SW - #35 min. #0 min. #0,152 mm 80 W/m 0,5 C -1,6 C 18,5 km/h 91,29 %